Powrót do katalogu

CZ-4 DEB

AktywnySSO
NORAD 20848·DEBRIS·🇨🇳 China

Wystrzelony Sep 3, 1990 z Taiyuan Satellite Launch Center

Loading…

Następne Przeloty (najbliższe 24 godziny)

TLE

ŚwieżeSource: Space-Track

Epoka: Sep 14, 2026, 07:59 UTC

1 20848U 90081L   26257.33321360  .00000580  00000-0  51239-3 0  9999
2 20848  99.0656  16.8352 0204556 265.8280 115.3403 13.80079760799167

Śledź CZ-4 DEB w czasie rzeczywistym z AllMySat

Download on the App Store